カタログに戻る

STARLINK-11112

運用中通信VLEO
NORAD 60115·PAYLOAD·🇺🇸 United States

打ち上げ Jun 24, 2024 から Vandenberg Space Force Base

Loading…

次のパス (今後24時間)

TLE

最新Source: CelesTrak SupGP

元期: Sep 15, 2026, 03:36 UTC

1 60115C 24118C   26258.15048611 -.00041457  00000+0 -34150-3 0  2584
2 60115  53.1571   7.4894 0000959  91.0579  50.2466 15.69729862    12

AllMySatでSTARLINK-11112をリアルタイム追跡

Download on the App Store